[[{"header":{"parameterUnit":"m.s-1","parameterCategory":1,"la1":30.2991,"la2":30.254,"lo1":-89.0895,"lo2":-89.0444,"dy":0.0017,"dx":0.0017,"nx":28,"ny":28,"refTime":"2025-01-29T03:00:00:Z","depth":0,"parameterNumber":2,"parameterNumberName":"U-component_of_WINDS"},"data":[0,0,0,0,0,0,0,0,0,0,0,0,0,0,0,0,0,0,0,0,0,0,0,0,0,0,0,0,0,0,0,0,0,0,0,0,0,0,0,0,0,0,0,0,0,0,0,0,0,0,0,0,0,0,0,0,0,0,-4.2839,-4.284,0,-4.2852,-4.2852,-4.2852,-4.2777,-4.2775,-4.2773,-4.2771,-4.2784,-4.2786,-4.2788,0,0,0,0,0,0,0,0,0,0,0,0,0,-4.2751,-4.2753,-4.2839,-4.284,-4.284,-4.2852,-4.2852,-4.2852,-4.2777,-4.2775,-4.2772,-4.277,-4.2783,-4.2786,-4.2789,0,0,0,0,0,0,0,0,0,0,0,0,0,-4.2779,-4.2754,-4.2839,-4.2804,-4.2801,-4.2852,-4.2852,-4.2852,-4.2778,-4.2775,-4.2771,-4.2768,-4.2782,-4.2786,-4.2789,-4.2875,0,0,-4.28,-4.2801,0,0,0,0,0,0,0,0,-4.2778,-4.2782,-4.2809,-4.2806,-4.2803,-4.281,-4.2826,-4.286,-4.2779,-4.2787,-4.2771,-4.2767,-4.2795,-4.2797,-4.2807,-4.2876,-4.2876,-4.28,-4.2802,-4.2804,-4.2805,0,0,0,0,0,0,0,-4.2776,-4.2781,-4.2844,-4.2809,-4.2806,-4.2787,-4.2788,-4.2832,-4.2809,-4.2786,-4.278,-4.2783,-4.2793,-4.2804,-4.2806,-4.2876,-4.28,-4.2803,-4.2805,-4.2807,-4.3017,-4.302,0,0,0,0,0,0,-4.2778,-4.278,-4.2844,-4.2845,-4.2782,-4.2792,-4.2792,-4.2811,-4.2808,-4.2804,-4.2786,-4.2779,-4.2799,-4.2802,-4.2807,-4.2907,-4.2804,-4.2807,-4.2809,-4.3013,-4.3017,-4.3021,0,0,0,0,0,0,-4.2777,-4.2785,-4.2843,-4.2811,-4.2817,-4.2797,-4.2818,-4.2813,-4.2823,-4.2808,-4.2803,-4.2801,-4.2797,-4.2802,-4.2859,-4.2906,-4.2809,-4.2812,-4.3009,-4.3015,-4.3019,-4.3108,0,0,0,0,0,0,-4.2775,-4.2785,-4.2817,-4.2812,-4.2819,-4.2895,-4.2821,-4.2815,-4.283,-4.2821,-4.2821,-4.2818,-4.2795,-4.2854,-4.2862,-4.2909,-4.2815,-4.3005,-4.3012,-4.3018,-4.3101,-4.3115,-4.3128,0,0,0,0,0,-4.2772,-4.2841,-4.2819,-4.2827,-4.2859,-4.2898,-4.2902,-4.2874,-4.2834,-4.2866,-4.2856,-4.2818,-4.29,-4.286,-4.2869,-4.2918,-4.3002,-4.301,-4.3017,-4.3094,-4.3112,-4.3128,0,0,0,0,0,0,-4.2852,-4.284,-4.2815,-4.2885,-4.2893,-4.2885,-4.2925,-4.2894,-4.2913,-4.2905,-4.2869,-4.287,-4.2933,-4.2931,-4.2887,-4.3001,-4.2944,-4.2954,-4.2999,-4.3017,-4.303,-4.3028,-4.2817,0,0,0,0,0,-4.2878,-4.2911,-4.2899,-4.2962,-4.2967,-4.2946,-4.2962,-4.294,-4.2946,-4.2949,-4.2943,-4.2952,-4.2979,-4.2998,-4.3023,-4.3101,-4.3099,-4.3139,-4.3152,-4.3164,-4.3172,-4.3213,-4.323,-4.3047,-4.3047,-4.3047,0,0,-4.2932,-4.2929,-4.2952,-4.2978,-4.2981,-4.3016,-4.2949,-4.2988,-4.3014,-4.2955,-4.3008,-4.3005,-4.3011,-4.3079,-4.3109,-4.308,-4.3223,-4.3174,-4.3183,-4.3185,-4.3223,-4.324,-4.3256,-4.3052,-4.3051,-4.305,0,0,-4.3047,-4.3049,-4.3101,-4.3107,-4.3113,-4.3098,-4.3111,-4.3108,-4.3103,-4.3156,-4.3113,-4.3143,-4.3192,-4.3198,-4.3208,-4.3327,-4.3292,-4.3336,-4.3408,-4.3448,-4.3462,-4.3475,-4.3516,-4.3532,-4.3345,-4.3345,-4.3345,0,-4.3113,-4.3163,-4.3132,-4.3175,-4.3187,-4.3137,-4.319,-4.3196,-4.321,-4.322,-4.3188,-4.3248,-4.3249,-4.3317,-4.3346,-4.3356,-4.3369,-4.3335,-4.3463,-4.3475,-4.3486,-4.3526,-4.3541,-4.335,-4.335,-4.3349,-4.3349,0,-4.3243,-4.3279,-4.3321,-4.3335,-4.3353,-4.3401,-4.3378,-4.3399,-4.3376,-4.3365,-4.342,-4.342,-4.3443,-4.3458,-4.3436,-4.3524,-4.3505,-4.3469,-4.341,-4.3509,-4.3546,-4.3561,-4.3358,-4.3356,-4.3355,-4.3353,0,0,-4.3407,-4.3406,-4.3421,-4.3428,-4.3432,-4.3458,-4.3504,-4.3527,-4.3546,-4.3558,-4.3595,-4.3638,-4.3604,-4.3615,-4.3594,-4.3629,-4.3723,-4.3588,-4.3587,-4.3612,-4.3819,-4.3845,-4.3863,-4.3701,-4.3703,-4.3705,-4.3818,0,-4.3519,-4.3596,-4.3571,-4.3649,-4.3681,-4.3635,-4.3674,-4.3681,-4.3673,-4.3699,-4.369,-4.372,-4.3674,-4.368,-4.3713,-4.3704,-4.3764,-4.3696,-4.3734,-4.3736,-4.3732,-4.3882,-4.3911,-4.4016,-4.3832,-4.3834,-4.3836,0,-4.3659,-4.3677,-4.3759,-4.3757,-4.377,-4.3806,-4.3825,-4.3851,-4.3858,-4.385,-4.3863,-4.3834,-4.3879,-4.3822,-4.3883,-4.3837,-4.3852,-4.385,-4.3853,-4.3854,-4.3791,-4.3886,-4.405,-4.4065,-4.3858,-4.3857,-4.3855,0,-4.377,-4.3814,-4.3868,-4.3875,-4.3875,-4.3902,-4.3903,-4.3907,-4.3923,-4.394,-4.395,-4.3972,-4.3984,-4.4002,-4.398,-4.3941,-4.4045,-4.3986,-4.4038,-4.4039,-4.4061,-4.4059,-4.4227,-4.4073,-4.4073,-4.4072,-4.4072,0,-4.3896,-4.3948,-4.3918,-4.3951,-4.4008,-4.3979,-4.4035,-4.4031,-4.4036,-4.4067,-4.4029,-4.406,-4.4029,-4.4058,-4.4041,-4.4094,-4.41,-4.4094,-4.4089,-4.4097,-4.4097,-4.4104,-4.4096,-4.4076,-4.4075,-4.4075,-4.4074,0,-4.4028,-4.401,-4.4066,-4.4062,-4.4062,-4.4104,-4.41,-4.4131,-4.4121,-4.4161,-4.4169,-4.4153,-4.4184,-4.4164,-4.4196,-4.4185,-4.4253,-4.4239,-4.4251,-4.4246,-4.4299,-4.4294,-4.4476,-4.4498,-4.4331,-4.4333,-4.4334,0,-4.4109,-4.4147,-4.4148,-4.4166,-4.417,-4.4201,-4.4216,-4.419,-4.4208,-4.4219,-4.4249,-4.4277,-4.4297,-4.435,-4.434,-4.4365,-4.4349,-4.4412,-4.4352,-4.4359,-4.4349,-4.4346,-4.4349,-4.4423,-4.4425,-4.4426,-4.4428,0,-4.4254,-4.4244,-4.4268,-4.429,-4.431,-4.4326,-4.4338,-4.4356,-4.4329,-4.4352,-4.4383,-4.4399,-4.4432,-4.446,-4.448,-4.4482,-4.4451,-4.4447,-4.446,-4.4467,-4.4472,-4.4469,-4.4282,-4.4442,-4.4441,-4.444,-4.4439,-4.4438,-4.4362,-4.4394,-4.4399,-4.4428,-4.4435,-4.4448,-4.4476,-4.4469,-4.4495,-4.4519,-4.4502,-4.454,-4.4546,-4.4571,-4.4576,-4.4605,-4.458,-4.4599,-4.4604,-4.4608,-4.4615,-4.447,-4.4609,-4.4608,-4.4608,-4.4608,-4.4607,0,-4.4505,-4.4506,-4.4532,-4.4551,-4.4574,-4.4543,-4.4556,-4.4577,-4.461,-4.4619,-4.464,-4.4677,-4.4704,-4.4698,-4.4722,-4.4747,-4.4733,-4.4754,-4.4751,-4.4752,-4.4637,-4.4622,-4.4764,-4.4764,-4.4764,-4.4764,-4.4764,-4.4764,-4.4581,-4.4633,-4.4624,-4.4679,-4.468,-4.4716,-4.4726,-4.4738,-4.4745,-4.4787,-4.4809,-4.4805,-4.4808,-4.4833,-4.4857,-4.4854,-4.4864,-4.489,-4.4883,-4.4775,-4.476,-4.4745,-4.4731,-4.4893,-4.4894,-4.4995,-4.4995,-4.4996]},{"header":{"parameterUnit":"m.s-1","parameterCategory":1,"la1":30.2991,"la2":30.254,"lo1":-89.0895,"lo2":-89.0444,"dy":0.0017,"dx":0.0017,"nx":28,"ny":28,"refTime":"2025-01-29T03:00:00:Z","depth":0,"parameterNumber":3,"parameterNumberName":"V-component_of_WINDS"},"data":[0,0,0,0,0,0,0,0,0,0,0,0,0,0,0,0,0,0,0,0,0,0,0,0,0,0,0,0,0,0,0,0,0,0,0,0,0,0,0,0,0,0,0,0,0,0,0,0,0,0,0,0,0,0,0,0,0,0,2.6367,2.6368,0,2.6445,2.6446,2.6447,2.6474,2.6473,2.6473,2.6473,2.6551,2.6553,2.6556,0,0,0,0,0,0,0,0,0,0,0,0,0,2.6242,2.6244,2.6367,2.6368,2.6369,2.6445,2.6446,2.6447,2.6474,2.6473,2.6473,2.6473,2.655,2.6553,2.6556,0,0,0,0,0,0,0,0,0,0,0,0,0,2.6305,2.6244,2.6367,2.6392,2.6395,2.6445,2.6446,2.6448,2.6474,2.6473,2.6473,2.6473,2.6549,2.6553,2.6556,2.6587,0,0,2.6567,2.6569,0,0,0,0,0,0,0,0,2.6302,2.631,2.6387,2.639,2.6393,2.6449,2.6431,2.6494,2.6474,2.6444,2.6473,2.6472,2.6517,2.6524,2.6539,2.6591,2.6594,2.6567,2.657,2.6571,2.6572,0,0,0,0,0,0,0,2.6297,2.6307,2.6398,2.6388,2.6392,2.6399,2.6408,2.6443,2.6482,2.6446,2.6448,2.6457,2.6519,2.6536,2.6541,2.6596,2.6567,2.6571,2.6573,2.6574,2.668,2.6681,0,0,0,0,0,0,2.6289,2.6303,2.6396,2.6401,2.6346,2.6402,2.6411,2.6432,2.6482,2.6489,2.6458,2.6458,2.653,2.6537,2.6544,2.6586,2.6571,2.6574,2.6576,2.668,2.6681,2.6681,0,0,0,0,0,0,2.6286,2.6297,2.6393,2.6352,2.6365,2.6404,2.6427,2.6434,2.645,2.6491,2.6498,2.6468,2.653,2.6539,2.6577,2.6589,2.6576,2.6579,2.6679,2.668,2.6681,2.6669,0,0,0,0,0,0,2.6282,2.6296,2.6308,2.6353,2.6367,2.6424,2.6428,2.6436,2.6457,2.6458,2.6502,2.6508,2.653,2.6572,2.6581,2.6594,2.6582,2.6678,2.6679,2.6681,2.6669,2.667,2.667,0,0,0,0,0,2.6278,2.63,2.6308,2.6319,2.6383,2.6425,2.6433,2.6458,2.6457,2.647,2.6497,2.6507,2.6586,2.6576,2.6586,2.66,2.6677,2.6679,2.668,2.6668,2.6669,2.667,0,0,0,0,0,0,2.6254,2.6306,2.6316,2.6353,2.6385,2.6429,2.6446,2.6458,2.649,2.649,2.652,2.6529,2.6566,2.6587,2.6574,2.6635,2.6633,2.6636,2.662,2.6621,2.6622,2.6617,2.6585,0,0,0,0,0,2.6254,2.6283,2.6327,2.6356,2.6372,2.6406,2.6425,2.6442,2.6476,2.6489,2.6518,2.6549,2.6582,2.6603,2.6634,2.6672,2.6683,2.6687,2.6688,2.6688,2.6691,2.6715,2.6718,2.6686,2.6686,2.6686,0,0,2.6252,2.6284,2.6301,2.6352,2.6379,2.641,2.6417,2.6448,2.6472,2.6493,2.6532,2.6555,2.6592,2.6631,2.6649,2.6649,2.6703,2.669,2.669,2.6693,2.6717,2.672,2.6723,2.6687,2.6687,2.6687,0,0,2.6265,2.6292,2.632,2.6347,2.6388,2.6411,2.6418,2.6462,2.6478,2.6518,2.6535,2.6564,2.6618,2.6645,2.6666,2.6693,2.6705,2.6702,2.6707,2.673,2.6733,2.6735,2.6747,2.6751,2.6705,2.6705,2.6705,0,2.6258,2.6306,2.6333,2.6365,2.6388,2.641,2.644,2.6465,2.6513,2.6529,2.6528,2.6599,2.6626,2.6673,2.668,2.6695,2.6705,2.6698,2.673,2.6733,2.6736,2.6747,2.6752,2.6705,2.6705,2.6705,2.6705,0,2.6296,2.6329,2.6347,2.6395,2.642,2.645,2.6483,2.6505,2.6521,2.6544,2.6586,2.6619,2.6659,2.6671,2.6686,2.6721,2.672,2.6725,2.6723,2.6738,2.675,2.6754,2.6704,2.6704,2.6704,2.6704,0,0,2.6295,2.636,2.6367,2.639,2.6438,2.6464,2.6496,2.6537,2.6556,2.6589,2.6618,2.6665,2.6671,2.6695,2.6713,2.6733,2.6755,2.6735,2.6737,2.6739,2.6799,2.6796,2.6801,2.6763,2.6764,2.6765,2.6796,0,2.6316,2.6375,2.6402,2.645,2.6482,2.6505,2.6534,2.6566,2.659,2.6621,2.6647,2.6681,2.6684,2.6699,2.672,2.6748,2.6768,2.6746,2.6791,2.6793,2.6782,2.6806,2.6803,2.6831,2.6801,2.6801,2.6802,0,2.6347,2.6383,2.6434,2.6481,2.6495,2.652,2.6562,2.659,2.6629,2.6645,2.6673,2.6691,2.6727,2.6723,2.6774,2.6759,2.6779,2.6796,2.6798,2.6804,2.6799,2.6814,2.684,2.6845,2.6809,2.6808,2.6808,0,2.6344,2.6404,2.6443,2.6462,2.6518,2.6535,2.6559,2.6597,2.6621,2.6657,2.6673,2.6712,2.6734,2.6764,2.6793,2.6787,2.6842,2.684,2.6857,2.6856,2.6868,2.6867,2.6899,2.6879,2.6879,2.6878,2.6878,0,2.6364,2.6395,2.6443,2.6467,2.6503,2.6535,2.657,2.6595,2.6629,2.666,2.6681,2.6709,2.6745,2.6778,2.68,2.6841,2.6849,2.6864,2.687,2.6863,2.6861,2.6877,2.6877,2.688,2.6879,2.6879,2.6879,0,2.6366,2.6399,2.6444,2.6494,2.6507,2.6532,2.6575,2.66,2.6625,2.6663,2.6674,2.6714,2.6755,2.6786,2.6837,2.6853,2.6896,2.6902,2.6883,2.6887,2.6903,2.6902,2.6948,2.6956,2.6928,2.6929,2.6929,0,2.6377,2.6402,2.6456,2.6478,2.6502,2.6538,2.6563,2.6596,2.6622,2.6669,2.6689,2.6731,2.6766,2.6829,2.6863,2.6904,2.6911,2.6925,2.6917,2.6911,2.6914,2.6913,2.6916,2.6925,2.6926,2.6926,2.6926,0,2.6395,2.6411,2.6447,2.649,2.652,2.6555,2.659,2.6607,2.6647,2.6674,2.6717,2.6744,2.6799,2.6841,2.6885,2.691,2.6925,2.6928,2.6935,2.6928,2.6918,2.6926,2.6887,2.6927,2.6927,2.6927,2.6927,2.6927,2.6403,2.6427,2.647,2.651,2.6541,2.6574,2.6601,2.6632,2.6668,2.6715,2.6733,2.6777,2.6817,2.6879,2.6905,2.694,2.6941,2.695,2.6952,2.6954,2.6955,2.6911,2.6948,2.6948,2.6948,2.6948,2.6948,0,2.6423,2.6453,2.6489,2.654,2.6572,2.6585,2.6625,2.6652,2.669,2.6727,2.6763,2.6813,2.6855,2.6893,2.6937,2.6958,2.6966,2.6969,2.6968,2.6974,2.695,2.6941,2.6961,2.6961,2.6961,2.6961,2.6961,2.6961,2.6437,2.648,2.6502,2.6561,2.659,2.6635,2.6657,2.6689,2.6719,2.6774,2.681,2.6835,2.6874,2.6921,2.6961,2.6971,2.6987,2.6988,2.7,2.6977,2.6975,2.6974,2.6965,2.6991,2.6991,2.7021,2.7022,2.7022]}]]